[[{"header":{"parameterUnit":"m.s-1","parameterCategory":1,"la1":30.2991,"la2":30.254,"lo1":-89.0895,"lo2":-89.0444,"dy":0.0017,"dx":0.0017,"nx":28,"ny":28,"refTime":"2026-02-12T03:00:00:Z","depth":0,"parameterNumber":2,"parameterNumberName":"U-component_of_WINDS"},"data":[0,0,0,0,0,0,0,0,0,0,0,0,0,0,0,0,0,0,0,0,0,0,0,0,0,0,0,0,0,0,0,0,0,0,0,0,0,0,0,0,0,0,0,0,0,0,0,0,0,0,0,0,0,0,0,0,0,0,2.0511,2.0511,0,2.0523,2.0523,2.0524,2.0482,2.0481,2.048,2.0479,2.0493,2.0495,2.0497,0,0,0,0,0,0,0,0,0,0,0,0,0,2.0453,2.0454,2.0511,2.0511,2.0511,2.0523,2.0523,2.0524,2.0483,2.0481,2.048,2.0478,2.0493,2.0495,2.0497,0,0,0,0,0,0,0,0,0,0,0,0,0,2.0473,2.0455,2.0511,2.0492,2.0491,2.0523,2.0523,2.0524,2.0483,2.0481,2.0479,2.0478,2.0492,2.0495,2.0497,2.0549,0,0,2.0504,2.0505,0,0,0,0,0,0,0,0,2.0472,2.0475,2.0495,2.0494,2.0492,2.0499,2.0508,2.0532,2.0483,2.0486,2.0479,2.0477,2.0497,2.0499,2.0505,2.0549,2.055,2.0504,2.0506,2.0507,2.0507,0,0,0,0,0,0,0,2.0471,2.0475,2.0516,2.0495,2.0493,2.0484,2.0484,2.0513,2.0502,2.0486,2.0483,2.0485,2.0496,2.0503,2.0505,2.055,2.0504,2.0506,2.0508,2.0509,2.0636,2.0638,0,0,0,0,0,0,2.0472,2.0474,2.0515,2.0516,2.0477,2.0486,2.0487,2.0499,2.0501,2.05,2.0486,2.0483,2.05,2.0503,2.0506,2.0565,2.0507,2.0509,2.051,2.0634,2.0636,2.0638,0,0,0,0,0,0,2.0471,2.0476,2.0515,2.0494,2.0498,2.0489,2.0503,2.05,2.0507,2.0502,2.05,2.0495,2.0499,2.0503,2.0538,2.0565,2.051,2.0512,2.0631,2.0634,2.0637,2.0685,0,0,0,0,0,0,2.0469,2.0476,2.0495,2.0495,2.05,2.0547,2.0505,2.0502,2.0511,2.0507,2.051,2.0509,2.0498,2.0535,2.054,2.0567,2.0514,2.0629,2.0633,2.0636,2.0681,2.0689,2.0697,0,0,0,0,0,2.0467,2.0509,2.0496,2.0501,2.0524,2.0548,2.0551,2.0537,2.0514,2.0533,2.0529,2.0509,2.0561,2.0538,2.0544,2.0573,2.0627,2.0632,2.0636,2.0678,2.0688,2.0696,0,0,0,0,0,0,2.0513,2.0508,2.0494,2.0537,2.0543,2.0541,2.0565,2.0548,2.0561,2.0557,2.0539,2.054,2.0578,2.0579,2.0554,2.0622,2.059,2.0596,2.062,2.063,2.0637,2.0636,2.0516,0,0,0,0,0,2.0528,2.0548,2.0543,2.0581,2.0585,2.0575,2.0585,2.0573,2.0579,2.0582,2.0581,2.0588,2.0605,2.0618,2.0634,2.0681,2.0681,2.0704,2.0711,2.0718,2.0723,2.0746,2.0756,2.0653,2.0653,2.0653,0,0,2.0559,2.0559,2.0573,2.059,2.0594,2.0615,2.0577,2.0602,2.0617,2.0586,2.0618,2.0618,2.0624,2.0665,2.0683,2.0667,2.0751,2.0723,2.0729,2.073,2.0752,2.0762,2.077,2.0656,2.0655,2.0655,0,0,2.0627,2.0629,2.066,2.0664,2.067,2.0662,2.067,2.0671,2.0669,2.0701,2.0677,2.0696,2.0728,2.0733,2.074,2.0808,2.079,2.0814,2.0854,2.0878,2.0886,2.0893,2.0916,2.0925,2.082,2.082,2.082,0,2.0665,2.0695,2.0679,2.0704,2.0712,2.0684,2.0716,2.0721,2.0731,2.0737,2.0719,2.0757,2.076,2.0801,2.0818,2.0825,2.0832,2.0813,2.0886,2.0893,2.0899,2.0921,2.093,2.0823,2.0822,2.0822,2.0822,0,2.0742,2.0763,2.0788,2.0797,2.0809,2.0837,2.0825,2.0838,2.0825,2.082,2.0853,2.0855,2.0871,2.088,2.0868,2.0919,2.0909,2.0889,2.0856,2.0912,2.0932,2.0941,2.0827,2.0826,2.0825,2.0824,0,0,2.0838,2.0838,2.0847,2.085,2.0854,2.087,2.0897,2.0912,2.0923,2.0931,2.0953,2.098,2.0961,2.0969,2.0958,2.0978,2.1031,2.0955,2.0955,2.0968,2.1085,2.11,2.111,2.1019,2.102,2.1022,2.1084,0,2.0903,2.0948,2.0934,2.0979,2.0998,2.0972,2.0995,2.1,2.0996,2.1012,2.1008,2.1026,2.1001,2.1005,2.1024,2.102,2.1054,2.1016,2.1038,2.1039,2.1036,2.112,2.1136,2.1195,2.1092,2.1094,2.1095,0,2.0984,2.0995,2.1042,2.1041,2.1049,2.107,2.1081,2.1097,2.1102,2.1098,2.1106,2.109,2.1117,2.1085,2.112,2.1095,2.1103,2.1103,2.1105,2.1105,2.107,2.1122,2.1214,2.1222,2.1107,2.1106,2.1105,0,2.1048,2.1074,2.1105,2.1109,2.111,2.1125,2.1126,2.1129,2.1138,2.1149,2.1154,2.1168,2.1176,2.1187,2.1175,2.1153,2.1212,2.118,2.1209,2.1209,2.1222,2.1221,2.1314,2.1229,2.1229,2.1229,2.1229,0,2.1121,2.115,2.1133,2.1153,2.1185,2.1169,2.1201,2.1199,2.1202,2.122,2.1199,2.1217,2.1201,2.1218,2.1209,2.1239,2.1243,2.124,2.1237,2.1241,2.1241,2.1246,2.1241,2.1232,2.1231,2.1231,2.123,0,2.1196,2.1186,2.1218,2.1216,2.1216,2.124,2.1238,2.1255,2.125,2.1273,2.1278,2.1269,2.1287,2.1277,2.1296,2.129,2.1329,2.1321,2.1327,2.1324,2.1353,2.135,2.1452,2.1464,2.1373,2.1374,2.1374,0,2.1243,2.1265,2.1265,2.1275,2.1277,2.1294,2.1303,2.1288,2.1299,2.1306,2.1322,2.1338,2.135,2.138,2.1376,2.139,2.1382,2.1416,2.1384,2.1387,2.1381,2.1379,2.138,2.1423,2.1424,2.1425,2.1425,0,2.1326,2.132,2.1333,2.1345,2.1356,2.1365,2.1372,2.1382,2.1367,2.138,2.1397,2.1407,2.1425,2.1441,2.1453,2.1455,2.1437,2.1436,2.1443,2.1447,2.1448,2.1446,2.1343,2.1433,2.1432,2.1432,2.1431,2.1431,2.1387,2.1405,2.1407,2.1423,2.1427,2.1434,2.145,2.1446,2.146,2.1473,2.1464,2.1485,2.1489,2.1503,2.1506,2.1522,2.1508,2.1519,2.1522,2.1524,2.1528,2.1447,2.1525,2.1525,2.1524,2.1524,2.1524,0,2.1468,2.1468,2.1483,2.1493,2.1505,2.1488,2.1494,2.1506,2.1524,2.1529,2.1541,2.1561,2.1576,2.1573,2.1587,2.16,2.1593,2.1604,2.1602,2.1603,2.154,2.1532,2.161,2.161,2.161,2.161,2.161,2.161,2.1511,2.154,2.1534,2.1564,2.1564,2.1584,2.1589,2.1595,2.1599,2.1622,2.1635,2.1632,2.1634,2.1647,2.166,2.1659,2.1665,2.1679,2.1675,2.1616,2.1607,2.1599,2.1591,2.1681,2.1681,2.1736,2.1736,2.1737]},{"header":{"parameterUnit":"m.s-1","parameterCategory":1,"la1":30.2991,"la2":30.254,"lo1":-89.0895,"lo2":-89.0444,"dy":0.0017,"dx":0.0017,"nx":28,"ny":28,"refTime":"2026-02-12T03:00:00:Z","depth":0,"parameterNumber":3,"parameterNumberName":"V-component_of_WINDS"},"data":[0,0,0,0,0,0,0,0,0,0,0,0,0,0,0,0,0,0,0,0,0,0,0,0,0,0,0,0,0,0,0,0,0,0,0,0,0,0,0,0,0,0,0,0,0,0,0,0,0,0,0,0,0,0,0,0,0,0,2.7401,2.74,0,2.7364,2.7364,2.7363,2.7314,2.7313,2.7313,2.7312,2.7273,2.7273,2.7273,0,0,0,0,0,0,0,0,0,0,0,0,0,2.7428,2.7428,2.7401,2.74,2.74,2.7364,2.7364,2.7363,2.7314,2.7313,2.7312,2.7311,2.7273,2.7273,2.7273,0,0,0,0,0,0,0,0,0,0,0,0,0,2.7406,2.7428,2.7401,2.7371,2.7368,2.7364,2.7364,2.7363,2.7315,2.7313,2.7312,2.7311,2.7273,2.7273,2.7273,2.7294,0,0,2.7271,2.7271,0,0,0,0,0,0,0,0,2.7408,2.7405,2.7376,2.7373,2.737,2.7342,2.7359,2.734,2.7315,2.7335,2.7312,2.731,2.7297,2.7295,2.729,2.7293,2.7291,2.7271,2.7271,2.7271,2.7271,0,0,0,0,0,0,0,2.7409,2.7407,2.7386,2.7376,2.7372,2.736,2.7355,2.7355,2.7323,2.7333,2.7329,2.7326,2.7295,2.7291,2.7289,2.729,2.7271,2.7271,2.7271,2.7271,2.7308,2.7309,0,0,0,0,0,0,2.7415,2.7408,2.7387,2.7385,2.7386,2.736,2.7355,2.7352,2.7323,2.7317,2.7327,2.7324,2.7292,2.729,2.7288,2.7311,2.7271,2.7271,2.727,2.7307,2.7308,2.731,0,0,0,0,0,0,2.7416,2.7414,2.7389,2.7396,2.7392,2.7361,2.7358,2.7352,2.7348,2.7318,2.7312,2.7328,2.7291,2.7288,2.7293,2.7309,2.727,2.727,2.7306,2.7307,2.7309,2.7358,0,0,0,0,0,0,2.7417,2.7414,2.7422,2.7396,2.7391,2.7395,2.7359,2.7353,2.7348,2.7343,2.7318,2.7313,2.729,2.7294,2.7293,2.7308,2.727,2.7304,2.7306,2.7309,2.7355,2.7362,2.7367,0,0,0,0,0,2.7418,2.7438,2.7423,2.7421,2.7401,2.7396,2.7393,2.7367,2.7349,2.7357,2.7338,2.7314,2.7308,2.7295,2.7293,2.7308,2.7303,2.7306,2.7308,2.7352,2.736,2.7367,0,0,0,0,0,0,2.7466,2.7434,2.7417,2.7429,2.7416,2.7388,2.7397,2.7376,2.7368,2.7364,2.7331,2.7326,2.7334,2.7322,2.7308,2.7328,2.7302,2.7304,2.7336,2.7343,2.7349,2.7352,2.7269,0,0,0,0,0,2.7478,2.7477,2.7449,2.7462,2.7456,2.7428,2.7425,2.7406,2.7391,2.7385,2.7366,2.7352,2.7347,2.7344,2.7338,2.7353,2.7347,2.7363,2.7369,2.7374,2.7376,2.7383,2.739,2.7319,2.7319,2.7319,0,0,2.7503,2.7485,2.7486,2.7471,2.7458,2.7458,2.7423,2.7425,2.7424,2.7385,2.7388,2.7374,2.7356,2.7367,2.737,2.7356,2.7395,2.7377,2.7382,2.7381,2.7387,2.7394,2.74,2.7321,2.7321,2.732,0,0,2.7547,2.7534,2.7543,2.7532,2.7513,2.7495,2.7497,2.7472,2.7462,2.7465,2.7435,2.7434,2.7426,2.7415,2.7408,2.7449,2.7426,2.7448,2.7479,2.7486,2.7492,2.7497,2.7511,2.7517,2.745,2.745,2.745,0,2.758,2.7579,2.755,2.7554,2.7548,2.7513,2.7522,2.7512,2.7492,2.7489,2.7474,2.7463,2.7449,2.7456,2.7466,2.7462,2.7463,2.745,2.7493,2.7498,2.7502,2.7515,2.7521,2.7453,2.7453,2.7452,2.7452,0,2.762,2.7619,2.7629,2.7612,2.7607,2.7613,2.7586,2.7584,2.7565,2.7548,2.7552,2.7533,2.7523,2.7523,2.7505,2.7528,2.752,2.75,2.7473,2.7512,2.7524,2.7529,2.7457,2.7456,2.7455,2.7454,0,0,2.7693,2.7661,2.7665,2.7656,2.7634,2.7633,2.7637,2.7627,2.7627,2.7615,2.7618,2.7612,2.7593,2.7585,2.7565,2.7572,2.7606,2.7551,2.755,2.7562,2.763,2.7645,2.7652,2.7591,2.7592,2.7592,2.7631,0,2.7733,2.774,2.7714,2.7727,2.7726,2.7693,2.7697,2.7684,2.7668,2.7665,2.7647,2.7643,2.7619,2.7614,2.7619,2.7601,2.7619,2.7597,2.7593,2.7593,2.7598,2.7658,2.7674,2.7712,2.7636,2.7637,2.7637,0,2.7781,2.7772,2.7785,2.7762,2.7761,2.7765,2.7754,2.7751,2.7735,2.7723,2.7715,2.7692,2.7695,2.767,2.7673,2.7659,2.7655,2.7646,2.7647,2.7645,2.7617,2.7658,2.7723,2.7729,2.7644,2.7644,2.7643,0,2.7833,2.7824,2.7831,2.7825,2.7798,2.7802,2.7791,2.7774,2.777,2.776,2.7757,2.7748,2.7742,2.7736,2.7711,2.7695,2.7717,2.7689,2.7707,2.7707,2.7713,2.7713,2.7778,2.7711,2.7711,2.7711,2.7711,0,2.7881,2.789,2.7854,2.7858,2.7867,2.7838,2.7848,2.7834,2.7819,2.782,2.779,2.7791,2.7758,2.7756,2.7736,2.7742,2.774,2.773,2.7725,2.7733,2.7734,2.773,2.7727,2.7712,2.7712,2.7712,2.7711,0,2.794,2.7917,2.7922,2.7896,2.789,2.7898,2.7876,2.7879,2.7862,2.7863,2.7861,2.7834,2.7829,2.7804,2.7793,2.778,2.7792,2.7782,2.7798,2.7794,2.7813,2.7812,2.7879,2.7886,2.7814,2.7815,2.7815,0,2.7972,2.7978,2.7954,2.7953,2.7943,2.7941,2.7937,2.7908,2.7905,2.7888,2.7893,2.7886,2.7879,2.7873,2.7852,2.7843,2.7832,2.7856,2.7831,2.7839,2.7833,2.7833,2.7833,2.7862,2.7863,2.7863,2.7864,0,2.8031,2.8019,2.8014,2.8005,2.8001,2.7993,2.7982,2.7983,2.7951,2.7949,2.7944,2.7939,2.7928,2.7922,2.791,2.7899,2.7876,2.7872,2.7876,2.7884,2.7893,2.7889,2.7813,2.7871,2.787,2.787,2.7869,2.7869,2.8078,2.8082,2.8066,2.8061,2.805,2.8042,2.8043,2.8026,2.8022,2.8011,2.7995,2.7992,2.7976,2.7958,2.7949,2.7946,2.7933,2.7939,2.794,2.7942,2.7946,2.7894,2.7944,2.7944,2.7943,2.7943,2.7943,0,2.8135,2.8123,2.8119,2.8106,2.8103,2.8082,2.807,2.8068,2.8067,2.8054,2.8048,2.8043,2.8037,2.8015,2.8007,2.8009,2.7998,2.8008,2.8007,2.8005,2.7958,2.7956,2.8016,2.8016,2.8016,2.8016,2.8016,2.8016,2.8165,2.8171,2.8157,2.8158,2.8145,2.8143,2.8138,2.813,2.8119,2.8115,2.811,2.8096,2.808,2.807,2.8063,2.8057,2.8055,2.8068,2.8059,2.8015,2.8008,2.8001,2.7999,2.8068,2.8068,2.8106,2.8106,2.8107]}]]